This demonstration page uses our WeatherBlox Daily Observations layout. Learn more.

38.88101, -77.10428

Hourly Observations for August 19, 2017

Temp ( °F °C ) Dew Point ( °F °C ) Humidity (%) Winds ( mph kmh ) Pressure ( in mb ) Visibility ( mi km ) Precip ( " mm )
12:52 am 00:52 Cloudy 78 25.6 77 25 97 97 S 7 11 29.87 1011 10 16.0934 0 0
1:52 am 01:52 Cloudy 78 25.6 77 25 97 97 SSW 6 9 29.86 1011 9 14.48406 0 0.0254
2:52 am 02:52 Cloudy 79 26.1 77 25 94 94 WSW 7 11 29.86 1011 10 16.0934 0 0
3:52 am 03:52 Cloudy 80 26.7 73 22.8 79 79 WNW 7 11 29.85 1011 10 16.0934 0 0
4:52 am 04:52 Mostly Cloudy 79 26.1 70 21.1 74 74 NW 7 11 29.85 1011 10 16.0934 0 0
5:52 am 05:52 Cloudy 79 26.1 68 20 69 69 NW 10 17 29.86 1011 10 16.0934 0 0
6:52 am 06:52 Mostly Cloudy 77 25 68 20 74 74 NNW 9 15 29.88 1012 10 16.0934 0 0
7:52 am 07:52 Mostly Cloudy 79 26.1 69 20.6 72 72 NNW 6 9 29.9 1012 10 16.0934 0 0
8:52 am 08:52 Partly Cloudy 80 26.7 67 19.4 64 64 NW 7 11 29.91 1013 10 16.0934 0 0
9:52 am 09:52 Mostly Sunny 82 27.8 69 20.6 65 65 NNW 10 17 29.92 1013 10 16.0934 0 0
10:52 am 10:52 Partly Cloudy 84 28.9 69 20.6 61 61 N 10 17 29.93 1013 10 16.0934 0 0
11:52 am 11:52 Mostly Cloudy 86 30 69 20.6 57 57 NNW 13 20 29.93 1014 10 16.0934 0 0
12:52 pm 12:52 Partly Cloudy 85 29.4 68 20 57 57 NNE 9 15 29.93 1013 10 16.0934 0 0
1:52 pm 13:52 Mostly Cloudy 87 30.6 70 21.1 57 57 N 12 19 29.93 1014 10 16.0934 0 0
2:52 pm 14:52 Partly Cloudy 88 31.1 69 20.6 54 54 VRB 7 11 29.91 1013 10 16.0934 0 0
3:52 pm 15:52 Mostly Sunny 89 31.7 65 18.3 45 45 Calm 29.88 1012 10 16.0934 0 0
4:52 pm 16:52 Mostly Sunny 90 32.2 66 18.9 45 45 WSW 8 13 29.88 1012 10 16.0934 0 0
5:52 pm 17:52 Partly Cloudy 89 31.7 66 18.9 47 47 SW 9 15 29.88 1012 10 16.0934 0 0
6:52 pm 18:52 Partly Cloudy 87 30.6 67 19.4 51 51 SSW 10 17 29.89 1012 10 16.0934 0 0
7:52 pm 19:52 Mostly Sunny 84 28.9 68 20 59 59 SW 7 11 29.9 1013 10 16.0934 0 0
8:52 pm 20:52 Partly Cloudy 83 28.3 71 21.7 67 67 S 6 9 29.91 1013 10 16.0934 0 0
9:52 pm 21:52 Partly Cloudy 82 27.8 73 22.8 74 74 S 5 7 29.94 1014 10 16.0934 0 0
10:20 pm 22:20 Cloudy 79 26.1 65 18.3 62 62 NW 17 28 30 1016 10 16.0934 0 0
10:32 pm 22:32 Cloudy with Light Thunderstorms 76 24.4 65 18.3 69 69 NW 15 24 29.97 1015 7 11.26538 0.01 0.254
10:52 pm 22:52 Mostly Cloudy with Light Thunderstorms 75 23.9 64 17.8 69 69 N 12 19 29.96 1015 10 16.0934 0.01 0.254
10:59 pm 22:59 Partly Cloudy with Light Rain 75 23.9 64 17.8 69 69 N 6 9 29.97 1015 10 16.0934 0 0.0254
11:52 pm 23:52 Partly Cloudy 74 23.3 65 18.3 74 74 NNW 7 11 29.98 1015 10 16.0934 0 0.0254

Powered by AerisWeather